Location: Baggettsville
(36.4767°N, 86.7303°W)
Time: 11:35:38
(UTC+00:00)

N. Korean satellite - Visible Passes

Search period start: 03 December 2022 00:00
Search period end: 13 December 2022 00:00
Orbit: 421 x 453 km, 97.3° (Epoch: 02 December)

Date Brightness Start Highest point End Pass type
(mag) Time Alt. Az. Time Alt. Az. Time Alt. Az.
03 Dec 8.9 10:25:14 10° NE 10:27:59 22° E 10:30:41 10° SSE visible
03 Dec 8.0 11:58:10 10° NNW 12:00:16 16° WNW 12:02:20 10° WSW visible
04 Dec 6.4 11:18:19 10° N 11:21:39 53° WNW 11:24:54 10° SSW visible
04 Dec 9.8 23:19:00 10° SW 23:20:44 13° W 23:22:30 10° WNW visible
05 Dec 8.0 10:39:36 10° NNE 10:42:46 36° E 10:45:52 10° SSE visible
06 Dec 10.0 10:03:00 10° E 10:03:38 10° E 10:04:16 10° ESE visible
06 Dec 7.1 11:33:11 10° N 11:36:14 32° WNW 11:39:15 10° SW visible
07 Dec 6.8 10:54:01 10° NNE 10:57:22 61° E 11:00:40 10° S visible
07 Dec 8.8 22:53:18 10° SSW 22:56:16 29° W 22:59:16 10° NW visible
08 Dec 9.4 10:16:03 10° NE 10:18:15 16° E 10:20:26 10° SE visible
08 Dec 7.7 11:48:06 10° NNW 11:50:40 20° WNW 11:53:12 10° WSW visible
09 Dec 6.2 11:08:26 10° N 11:11:48 78° WNW 11:15:07 10° SSW visible
09 Dec 9.5 23:08:19 10° SW 23:10:45 18° W 23:13:12 10° NW visible
10 Dec 8.6 10:29:51 10° NE 10:32:42 25° E 10:35:30 10° SSE visible
10 Dec 8.1 12:03:11 10° NW 12:04:55 13° WNW 12:06:37 10° W visible
11 Dec 6.6 11:22:51 10° N 11:26:04 45° WNW 11:29:15 10° SSW visible
11 Dec 9.9 23:23:44 10° WSW 23:25:06 12° W 23:26:29 10° WNW visible
12 Dec 7.6 10:43:48 10° NNE 10:46:59 40° E 10:50:06 10° S visible
